CYGFM01

Last updated on Thu Nov 21 2024 00:02:20 GMT+0000 (Coordinated Universal Time)

1 41887U 16078D 24325.54751831 .00018038 00000+0 55866-3 0 9992 2 41887 34.9482 31.5180 0011566 169.2617 190.8348 15.32500554439963
UTC large
Height (km)
Speed (km/s)
/
Latitude / Longitude
Inclination (degrees)
Orbital Period (minutes)
Azimuth
Elevation
Range (km)
Doppler Factor

Next 0 passes for location: London (51.5072 / 0.1276)

Sorry there are no passes over London.